{"data":{"norad_id":61948,"intl_designator":"2024-209K","name":"STARLINK-11414 [DTC]","alt_names":[],"object_type":"PAYLOAD","status":"ACTIVE","operator":null,"country":"US","launch_date":"2024-11-14","launch_site_code":"AFWTR","launch_vehicle":null,"mission":null,"orbit_class":"UNKNOWN","rcs_meters":null,"size_class":null,"mass_kg":null,"dimensions":null,"purposes":["comms"],"wikipedia_slug":null,"has_3d_model":false,"image_url":null,"decayed_at":null,"tle_current":{"epoch":"2026-05-24T20:38:38.637024Z","epoch_age_seconds":77389,"freshness":"FRESH","line1":"1 61948U 24209K   26144.86016941  .00191321  00000+0  15470-2 0  9992","line2":"2 61948  53.1570 355.5974 0000864  54.9462 305.1637 15.69722998 88680","mean_motion":15.69722998,"eccentricity":8.64e-5,"inclination_deg":53.157,"raan_deg":355.5974,"arg_perigee_deg":54.9462,"mean_anomaly_deg":305.1637,"bstar":0.001547,"rev_number":8868,"period_min":91.735930596336,"perigee_km":359.10740716143,"apogee_km":360.2717035902,"semimajor_km":6737.8265553758,"source":"CELESTRAK","updated_at":"2026-05-25T13:38:19.487927Z"}}}